User: anonymous   Login
Location: Unspecified
(0.0000°N, 0.0000°E)
Time: 23:32:06
(UTC+00:00)
Language:

Gurwin Techsat 1B - Orbit

View from above orbital plane
View from above orbital plane
View from above satellite
View from above satellite

Ground track
Ground track

The orbit is defined by the following mean orbital elements,

1 25397U          26145.44610883 +.00000000 +00000-0 +43712-4 0 00002
2 25397  99.0063 137.6323 0000349 329.3516  30.7641 14.24423288    04
Epoch (UTC): 25 May 2026 10:42:23
Eccentricity: 0.0000349
inclination: 99.0063°
perigee height: 810 km
apogee height: 811 km
right ascension of ascending node: 137.6323°
argument of perigee: 329.3516°
revolutions per day: 14.24423288
mean anomaly at epoch: 30.7641°

The dashed part of the orbit path shows where the satellite is in the earth's shadow,  

DLR